Hourly Data Report for October 02, 2015

All times are specified in Local Standard Time (LST). Add 1 hour to adjust for Daylight Saving Time where and when it is observed.

CORAL HARBOUR A
NUNAVUT

64°11'36.000" N
83°21'34.000" W
62.20 m
2301002
71915
YZS

Download Data

Hourly Data (October 2015)
Hourly Data Report for October 2, 2015
Temp Definition
°C
Dew Point Temp Definition
°C
Rel Hum Definition
%
Wind Dir Definition
10's deg

Wind Spd Definition
km/h
Visibility Definition
km
Stn Press Definition
kPa
Hmdx Definition


Wind Chill Definition


Weather Definition


TIME
00:00
01:00 Legend Double Dagger 2.1 1.1 93 2 16 0.4 101.58     Fog
02:00 Legend Double Dagger 1.6 0.7 94 2 8 0.4 101.70     Fog
03:00 Legend Double Dagger 1.8 0.3 90 35 12 1.2 101.83     Fog
04:00 Legend Double Dagger 1.5 0.0 90 1 16 2.0 101.96     Fog
05:00 Legend Double Dagger 1.8 -0.3 86 2 17 6.4 102.08     Fog
06:00 Legend Double Dagger 1.4 -0.7 86 1 17 19.3 102.17     LegendNANA
07:00 Legend Double Dagger 1.5 -2.5 75 3 20 24.1 102.25     Mostly Cloudy
08:00 Legend Double Dagger 1.0 -2.2 79 1 22 24.1 102.32     LegendNANA
09:00 Legend Double Dagger 1.1 -2.3 78 3 13 24.1 102.31     LegendNANA
10:00 Legend Double Dagger 1.3 -1.9 79 10 6 24.1 102.33     Cloudy
11:00 Legend Double Dagger 1.8 -2.3 74 9 17 24.1 102.30     LegendNANA
12:00 Legend Double Dagger 2.2 -2.3 72 10 19 24.1 102.31     LegendNANA
13:00 Legend Double Dagger 2.3 -2.0 73 10 16 24.1 102.30     Cloudy
14:00 Legend Double Dagger 1.9 -2.1 75 8 20 24.1 102.28     LegendNANA
15:00 Legend Double Dagger 1.3 -2.1 78 7 21 24.1 102.26     LegendNANA
16:00 Legend Double Dagger 0.9 -2.7 77 8 21 24.1 102.23     Cloudy
17:00 Legend Double Dagger 0.5 -2.7 79 8 28 24.1 102.14     Rain
18:00 Legend Double Dagger 0.4 -2.7 80 9 26 24.1 102.07     Rain
19:00 Legend Double Dagger 0.3 -2.6 81 8 29 24.1 102.06     Rain
20:00 Legend Double Dagger 0.4 -2.2 83 8 26 24.1 102.04     Rain
21:00 Legend Double Dagger 0.4 -1.8 85 9 31 24.1 101.95     Rain
22:00 Legend Double Dagger 0.5 -1.7 85 9 29 24.1 101.84     Rain
23:00 Legend Double Dagger 0.2 -0.7 94 10 27 19.3 101.77     Drizzle

Notes on Data Quality.

Legend

  • E = Estimated
  • M = Missing
  • NA = Not Available
  • ‡ = Partner data that is not subject to review by the National Climate Archives
Date modified: